EW3662 Weather Reports


Display with metric or nautical units.
time (UTC)temp
F
wind
direction
speed
MPH
gust
MPH
rain 1hr
in
rain 24hr
in
rain mn
in
humidity
%
barometer
mb
20260905022712 76 0 0.0 0.0 0.00 0.00 0.00 50 1015.6
20260905022209 77 0 0.0 1.0 0.00 0.00 0.00 43 1015.4
20260905021710 78 0 0.0 2.0 0.00 0.00 0.00 42 1015.4
20260905021208 79 0 1.0 3.0 0.00 0.00 0.00 41 1015.3
20260905020708 80 0 2.0 3.0 0.00 0.00 0.00 40 1015.2
20260905020439 80 0 2.0 4.0 0.00 0.00 0.00 37 1015.3
20260905020325 81 0 2.0 4.0 0.00 0.00 0.00 38 1015.1
20260905015208 81 0 3.0 4.0 0.00 0.00 0.00 33 1015.1
20260905014707 82 0 2.0 5.0 0.00 0.00 0.00 33 1015.1
20260905014206 82 0 2.0 5.0 0.00 0.00 0.00 33 1015.1
20260905013706 83 0 3.0 6.0 0.00 0.00 0.00 32 1015.1
20260905013207 83 0 3.0 6.0 0.00 0.00 0.00 31 1015.1
20260905012704 84 0 3.0 7.0 0.00 0.00 0.00 31 1015.1
20260905012204 84 0 3.0 7.0 0.00 0.00 0.00 30 1015.1
20260905011710 85 0 5.0 7.0 0.00 0.00 0.00 30 1015.0
20260905011705 84 0 4.0 7.0 0.00 0.00 0.00 30 1015.1
20260905010704 85 0 5.0 11.0 0.00 0.00 0.00 29 1015.0
20260905010204 86 0 6.0 11.0 0.00 0.00 0.00 29 1015.0
20260905005703 86 0 6.0 10.0 0.00 0.00 0.00 28 1015.0
20260905005202 87 0 7.0 11.0 0.00 0.00 0.00 27 1014.9
20260905004703 87 0 7.0 14.0 0.00 0.00 0.00 27 1015.0
20260905004202 87 0 6.0 14.0 0.00 0.00 0.00 26 1014.9
20260905003702 87 0 5.0 9.0 0.00 0.00 0.00 26 1014.9
20260905003202 87 0 5.0 8.0 0.00 0.00 0.00 26 1014.7
20260905002702 87 0 4.0 7.0 0.00 0.00 0.00 25 1014.7
20260905002202 88 0 5.0 10.0 0.00 0.00 0.00 24 1014.6
20260905001703 89 0 5.0 10.0 0.00 0.00 0.00 24 1014.6
20260905001432 89 0 6.0 12.0 0.00 0.00 0.00 24 1014.6
20260905000701 89 0 6.0 12.0 0.00 0.00 0.00 23 1014.6
20260905000204 90 0 6.0 12.0 0.00 0.00 0.00 23 1014.6
20260904235701 90 0 7.0 16.0 0.00 0.00 0.00 24 1014.6
20260904235200 90 0 8.0 16.0 0.00 0.00 0.00 23 1014.6
20260904234700 91 0 7.0 14.0 0.00 0.00 0.00 24 1014.6
20260904234200 91 0 8.0 14.0 0.00 0.00 0.00 23 1014.6
20260904233707 91 0 7.0 12.0 0.00 0.00 0.00 24 1014.5
20260904233702 91 0 8.0 14.0 0.00 0.00 0.00 22 1014.5
20260904232700 91 0 8.0 14.0 0.00 0.00 0.00 23 1014.5
20260904232201 91 0 8.0 14.0 0.00 0.00 0.00 22 1014.5
20260904231700 91 0 8.0 14.0 0.00 0.00 0.00 23 1014.5
20260904231434 91 0 8.0 14.0 0.00 0.00 0.00 22 1014.4
20260904230700 92 0 8.0 14.0 0.00 0.00 0.00 22 1014.4
20260904230159 92 0 7.0 11.0 0.00 0.00 0.00 23 1014.4
20260904225925 92 0 6.0 11.0 0.00 0.00 0.00 23 1014.5
20260904225154 93 0 6.0 12.0 0.00 0.00 0.00 21 1014.5
20260904224654 93 0 7.0 12.0 0.00 0.00 0.00 21 1014.5
20260904224423 93 0 7.0 15.0 0.00 0.00 0.00 19 1014.5
20260904223652 93 0 6.0 15.0 0.00 0.00 0.00 19 1014.5
20260904223152 93 0 5.0 12.0 0.00 0.00 0.00 20 1014.5
20260904222652 93 0 5.0 12.0 0.00 0.00 0.00 19 1014.5
20260904222423 94 0 7.0 12.0 0.00 0.00 0.00 21 1014.6
20260904221654 94 0 7.0 12.0 0.00 0.00 0.00 19 1014.5
20260904221152 94 0 5.0 12.0 0.00 0.00 0.00 19 1014.5
20260904220654 94 0 5.0 10.0 0.00 0.00 0.00 20 1014.6
20260904220425 94 0 5.0 10.0 0.00 0.00 0.00 18 1014.6
20260904215652 94 0 5.0 10.0 0.00 0.00 0.00 21 1014.6
20260904215152 94 0 5.0 10.0 0.00 0.00 0.00 19 1014.6
20260904214653 94 0 6.0 12.0 0.00 0.00 0.00 20 1014.6
20260904214152 94 0 6.0 16.0 0.00 0.00 0.00 21 1014.9
20260904213652 94 0 7.0 16.0 0.00 0.00 0.00 19 1014.9
20260904213153 93 0 6.0 12.0 0.00 0.00 0.00 19 1014.7
20260904212653 93 0 5.0 11.0 0.00 0.00 0.00 21 1014.9
20260904212152 93 0 5.0 11.0 0.00 0.00 0.00 20 1014.9
20260904211653 93 0 5.0 15.0 0.00 0.00 0.00 20 1014.9
20260904211151 92 0 4.0 15.0 0.00 0.00 0.00 23 1015.0
20260904210650 92 0 6.0 16.0 0.00 0.00 0.00 22 1015.0
20260904210427 92 0 6.0 15.0 0.00 0.00 0.00 22 1015.0
20260904210152 92 0 7.0 16.0 0.00 0.00 0.00 20 1015.1
20260904205150 92 0 6.0 15.0 0.00 0.00 0.00 22 1015.2
20260904204650 92 0 8.0 15.0 0.00 0.00 0.00 22 1015.3
20260904204152 92 0 7.0 15.0 0.00 0.00 0.00 21 1015.2
20260904203651 92 0 6.0 11.0 0.00 0.00 0.00 21 1015.3
20260904203419 92 0 7.0 13.0 0.00 0.00 0.00 23 1015.3
20260904202649 93 0 7.0 13.0 0.00 0.00 0.00 21 1015.3
20260904202146 93 0 6.0 12.0 0.00 0.00 0.00 23 1015.3
20260904201916 92 0 6.0 10.0 0.00 0.00 0.00 23 1015.4
20260904201146 92 0 6.0 11.0 0.00 0.00 0.00 23 1015.4
20260904200646 92 0 6.0 11.0 0.00 0.00 0.00 23 1015.4
20260904200144 92 0 7.0 12.0 0.00 0.00 0.00 26 1015.4
20260904195644 92 0 6.0 12.0 0.00 0.00 0.00 24 1015.4
20260904195416 92 0 6.0 12.0 0.00 0.00 0.00 24 1015.4
20260904195306 92 0 7.0 12.0 0.00 0.00 0.00 24 1015.6
20260904194415 91 0 6.0 11.0 0.00 0.00 0.00 22 1015.6
20260904193916 91 0 5.0 11.0 0.00 0.00 0.00 27 1015.6
20260904193144 91 169 5.0 11.0 0.00 0.00 0.00 27 1015.7
20260904192650 91 0 6.0 13.0 0.00 0.00 0.00 25 1015.7
20260904192645 91 0 6.0 13.0 0.00 0.00 0.00 24 1015.7
20260904191642 91 0 5.0 11.0 0.00 0.00 0.00 26 1015.8
20260904191143 91 0 6.0 14.0 0.00 0.00 0.00 23 1015.8
20260904190643 90 0 6.0 14.0 0.00 0.00 0.00 26 1015.9
20260904190143 90 0 6.0 11.0 0.00 0.00 0.00 26 1015.9
20260904185643 90 0 5.0 11.0 0.00 0.00 0.00 26 1015.9
20260904185142 90 0 6.0 11.0 0.00 0.00 0.00 25 1016.0
20260904184642 89 0 5.0 11.0 0.00 0.00 0.00 27 1016.1
20260904184415 89 0 5.0 8.0 0.00 0.00 0.00 28 1016.1
20260904183640 89 0 5.0 10.0 0.00 0.00 0.00 27 1016.2
20260904183141 88 0 5.0 10.0 0.00 0.00 0.00 29 1016.4
20260904182911 88 0 5.0 10.0 0.00 0.00 0.00 28 1016.4
20260904182140 87 0 5.0 10.0 0.00 0.00 0.00 28 1016.6
20260904181913 87 0 5.0 10.0 0.00 0.00 0.00 28 1016.6
20260904181139 87 0 5.0 11.0 0.00 0.00 0.00 30 1016.7
20260904180911 86 0 6.0 11.0 0.00 0.00 0.00 30 1016.7
20260904180141 86 0 6.0 11.0 0.00 0.00 0.00 30 1016.8
20260904175638 86 0 6.0 11.0 0.00 0.00 0.00 32 1016.9
20260904175139 86 0 5.0 11.0 0.00 0.00 0.00 31 1016.9
20260904174639 85 0 4.0 10.0 0.00 0.00 0.00 31 1017.1
20260904174139 85 0 5.0 10.0 0.00 0.00 0.00 31 1017.1
20260904173639 85 0 5.0 11.0 0.00 0.00 0.00 32 1017.1
20260904173138 85 0 5.0 11.0 0.00 0.00 0.00 32 1017.1
20260904172638 84 0 5.0 11.0 0.00 0.00 0.00 32 1017.2
20260904172411 84 0 6.0 11.0 0.00 0.00 0.00 33 1017.2
20260904171908 83 0 5.0 9.0 0.00 0.00 0.00 31 1017.1
20260904171136 83 0 4.0 10.0 0.00 0.00 0.00 32 1017.2
20260904170636 83 0 4.0 10.0 0.00 0.00 0.00 36 1017.1
20260904170135 82 0 4.0 8.0 0.00 0.00 0.00 39 1017.1
20260904165907 82 0 5.0 9.0 0.00 0.00 0.00 36 1017.2
20260904165137 82 0 5.0 9.0 0.00 0.00 0.00 35 1017.3
20260904164906 82 0 4.0 8.0 0.00 0.00 0.00 37 1017.2
20260904164137 82 0 3.0 6.0 0.00 0.00 0.00 36 1017.3
20260904163636 81 0 3.0 6.0 0.00 0.00 0.00 35 1017.4
20260904163137 81 0 2.0 6.0 0.00 0.00 0.00 37 1017.3
20260904162635 81 0 2.0 7.0 0.00 0.00 0.00 36 1017.4
20260904162134 80 0 3.0 7.0 0.00 0.00 0.00 37 1017.3
20260904161635 80 0 2.0 5.0 0.00 0.00 0.00 39 1017.4
20260904161133 79 0 1.0 4.0 0.00 0.00 0.00 41 1017.4
20260904160634 78 0 1.0 4.0 0.00 0.00 0.00 44 1017.3
20260904160132 78 0 0.0 4.0 0.00 0.00 0.00 45 1017.3
20260904155632 77 0 0.0 1.0 0.00 0.00 0.00 50 1017.3
20260904155132 76 0 0.0 1.0 0.00 0.00 0.00 49 1017.3
20260904154631 76 0 0.0 1.0 0.00 0.00 0.00 47 1017.2
20260904154132 75 0 0.0 1.0 0.00 0.00 0.00 51 1017.2
20260904153902 74 0 0.0 1.0 0.00 0.00 0.00 48 1017.2
20260904153403 74 0 0.0 0.0 0.00 0.00 0.00 50 1017.2
20260904152903 73 0 0.0 0.0 0.00 0.00 0.00 53 1017.2
20260904152131 72 0 0.0 0.0 0.00 0.00 0.00 51 1017.2
20260904151903 71 0 1.0 5.0 0.00 0.00 0.00 53 1017.2
20260904151131 70 0 1.0 5.0 0.00 0.00 0.00 53 1017.1
20260904150632 69 0 1.0 4.0 0.00 0.00 0.00 56 1017.1
20260904150131 68 0 2.0 4.0 0.00 0.00 0.00 57 1016.9
20260904145631 68 0 2.0 4.0 0.00 0.00 0.00 57 1016.9
20260904145131 67 0 1.0 3.0 0.00 0.00 0.00 60 1016.9
20260904144900 66 0 0.0 3.0 0.00 0.00 0.00 61 1016.9
20260904144130 65 0 0.0 0.0 0.00 0.00 0.00 62 1017.1
20260904143900 64 0 0.0 0.0 0.00 0.00 0.00 64 1016.9
20260904143128 63 0 0.0 1.0 0.00 0.00 0.00 64 1016.9
20260904142629 62 0 0.0 1.0 0.00 0.00 0.00 68 1016.9
20260904142130 60 0 0.0 1.0 0.00 0.00 0.00 71 1016.9
20260904141627 60 0 0.0 1.0 0.00 0.00 0.00 72 1016.9
20260904141126 59 0 0.0 0.0 0.00 0.00 0.00 72 1016.9
20260904140626 59 0 0.0 0.0 0.00 0.00 0.00 73 1016.9
20260904140125 58 0 0.0 1.0 0.00 0.00 0.00 74 1016.8
20260904135626 58 0 0.0 1.0 0.00 0.00 0.00 75 1016.7
20260904135125 58 0 0.0 0.0 0.00 0.00 0.00 76 1016.6
20260904134626 58 0 0.0 0.0 0.00 0.00 0.00 77 1016.6
20260904134124 57 0 0.0 0.0 0.00 0.00 0.00 78 1016.6
20260904133626 57 0 0.0 0.0 0.00 0.00 0.00 79 1016.4
20260904133125 57 280 0.0 1.0 0.00 0.00 0.00 79 1016.4
20260904132626 56 0 0.0 1.0 0.00 0.00 0.00 80 1016.4
20260904132357 56 0 0.0 2.0 0.00 0.00 0.00 80 1016.2
20260904131626 56 0 0.0 2.0 0.00 0.00 0.00 83 1016.0
20260904131122 55 0 0.0 1.0 0.00 0.00 0.00 81 1015.9
20260904130853 55 0 0.0 1.0 0.00 0.00 0.00 79 1016.0
20260904130123 55 0 0.0 0.0 0.00 0.00 0.00 79 1015.9
20260904125623 55 0 0.0 0.0 0.00 0.00 0.00 79 1015.8
20260904125353 55 0 0.0 0.0 0.00 0.00 0.00 79 1015.7
20260904124622 55 0 0.0 0.0 0.00 0.00 0.00 78 1015.6
20260904124121 56 0 0.0 0.0 0.00 0.00 0.00 78 1015.7
20260904123621 56 0 0.0 0.0 0.00 0.00 0.00 78 1015.6
20260904123123 56 0 0.0 0.0 0.00 0.00 0.00 76 1015.4
20260904123119 56 0 0.0 0.0 0.00 0.00 0.00 77 1015.6
20260904122115 56 0 0.0 1.0 0.00 0.00 0.00 75 1015.4
20260904121616 56 0 0.0 1.0 0.00 0.00 0.00 76 1015.4
20260904121114 56 0 0.0 1.0 0.00 0.00 0.00 76 1015.2
20260904120613 56 0 1.0 2.0 0.00 0.00 0.00 76 1015.0
20260904120112 56 0 0.0 2.0 0.00 0.00 0.00 76 1015.0
20260904115608 56 0 0.0 2.0 0.00 0.00 0.00 76 1015.0
20260904115110 56 0 0.0 1.0 0.00 0.00 0.00 75 1015.0
20260904114610 56 297 0.0 1.0 0.00 0.00 0.00 75 1015.0
20260904114108 57 0 0.0 1.0 0.00 0.00 0.00 75 1015.0
20260904113606 57 0 0.0 1.0 0.00 0.00 0.00 74 1015.0
20260904113108 57 0 0.0 1.0 0.00 0.00 0.00 74 1015.1
20260904112606 57 0 0.0 2.0 0.00 0.00 0.00 74 1015.1
20260904112108 57 0 0.0 2.0 0.00 0.00 0.00 74 1015.1
20260904111840 58 0 0.0 1.0 0.00 0.00 0.00 73 1015.2
20260904111337 58 0 0.0 1.0 0.00 0.00 0.00 73 1015.2
20260904110837 58 0 0.0 0.0 0.00 0.00 0.00 73 1015.2
20260904110108 58 0 0.0 0.0 0.00 0.00 0.00 73 1015.3
20260904105606 59 0 0.0 0.0 0.00 0.00 0.00 72 1015.3
20260904105339 59 0 0.0 0.0 0.00 0.00 0.00 72 1015.3
20260904104608 59 0 0.0 0.0 0.00 0.00 0.00 71 1015.2
20260904104106 60 0 0.0 0.0 0.00 0.00 0.00 72 1015.2
20260904103607 60 0 0.0 0.0 0.00 0.00 0.00 70 1015.1
20260904103108 60 0 0.0 0.0 0.00 0.00 0.00 69 1015.2
20260904102608 60 0 0.0 0.0 0.00 0.00 0.00 68 1015.1
20260904102108 61 0 0.0 0.0 0.00 0.00 0.00 69 1015.1
20260904101838 61 0 0.0 0.0 0.00 0.00 0.00 68 1015.0
20260904100838 61 0 1.0 3.0 0.00 0.00 0.00 68 1015.0
20260904100108 61 0 1.0 4.0 0.00 0.00 0.00 68 1014.9
20260904095608 61 0 2.0 4.0 0.00 0.00 0.00 68 1014.7
20260904095106 61 0 2.0 6.0 0.00 0.00 0.00 67 1014.6
20260904094607 61 0 2.0 6.0 0.00 0.00 0.00 68 1014.6
20260904094108 61 0 2.0 4.0 0.00 0.00 0.00 68 1014.6
20260904093608 61 0 2.0 4.0 0.00 0.00 0.00 68 1014.7
20260904093107 61 0 2.0 4.0 0.00 0.00 0.00 68 1014.9
20260904092837 61 0 1.0 4.0 0.00 0.00 0.00 68 1014.9
20260904092107 62 0 1.0 4.0 0.00 0.00 0.00 68 1014.9
20260904091612 62 0 1.0 3.0 0.00 0.00 0.00 68 1014.9
20260904091607 62 0 1.0 3.0 0.00 0.00 0.00 67 1014.9
20260904090607 61 0 0.0 2.0 0.00 0.00 0.00 69 1014.9
20260904090338 61 0 0.0 1.0 0.00 0.00 0.00 69 1014.9
20260904085607 61 0 1.0 2.0 0.00 0.00 0.00 69 1014.7
20260904085107 61 297 1.0 2.0 0.00 0.00 0.00 70 1014.6
20260904084608 61 0 1.0 2.0 0.00 0.00 0.00 71 1014.6
20260904084106 61 0 0.0 0.0 0.00 0.00 0.00 72 1014.9
20260904083606 61 0 0.0 0.0 0.00 0.00 0.00 70 1015.0
20260904083108 61 0 0.0 1.0 0.00 0.00 0.00 70 1015.0
20260904082607 61 0 1.0 2.0 0.00 0.00 0.00 71 1015.0
20260904082106 61 0 1.0 2.0 0.00 0.00 0.00 71 1014.9
20260904081606 61 0 0.0 2.0 0.00 0.00 0.00 71 1014.9
20260904081338 62 0 0.0 2.0 0.00 0.00 0.00 68 1015.0
20260904081224 62 0 0.0 2.0 0.00 0.00 0.00 68 1015.0
20260904080340 62 0 0.0 2.0 0.00 0.00 0.00 69 1014.9
20260904075608 62 0 0.0 2.0 0.00 0.00 0.00 69 1014.6
20260904075336 62 0 0.0 0.0 0.00 0.00 0.00 70 1014.6
20260904074604 62 0 0.0 0.0 0.00 0.00 0.00 66 1014.9
20260904074104 62 0 0.0 0.0 0.00 0.00 0.00 66 1014.9
20260904073604 62 0 0.0 0.0 0.00 0.00 0.00 67 1014.6
20260904073104 63 0 0.0 0.0 0.00 0.00 0.00 66 1014.6
20260904072603 63 0 0.0 0.0 0.00 0.00 0.00 65 1014.7
20260904072102 63 0 0.0 0.0 0.00 0.00 0.00 64 1014.7
20260904071608 64 0 0.0 0.0 0.00 0.00 0.00 62 1014.4
20260904071602 64 0 0.0 0.0 0.00 0.00 0.00 63 1014.5
20260904070603 64 0 0.0 0.0 0.00 0.00 0.00 63 1014.4
20260904065835 65 0 0.0 1.0 0.00 0.00 0.00 61 1014.5
20260904065103 65 0 0.0 0.0 0.00 0.00 0.00 59 1014.5
20260904064603 65 0 0.0 0.0 0.00 0.00 0.00 60 1014.5
20260904064335 66 0 0.0 0.0 0.00 0.00 0.00 57 1014.4
20260904063602 66 0 0.0 0.0 0.00 0.00 0.00 62 1014.4
20260904063335 67 0 0.0 0.0 0.00 0.00 0.00 57 1014.4
20260904062602 67 0 0.0 3.0 0.00 0.00 0.00 55 1014.3
20260904062103 67 0 0.0 5.0 0.00 0.00 0.00 54 1014.2
20260904061602 67 0 0.0 5.0 0.00 0.00 0.00 54 1014.3
20260904061102 67 0 0.0 0.0 0.00 0.00 0.00 54 1014.3
20260904060835 68 0 0.0 0.0 0.00 0.00 0.00 53 1014.4
20260904060103 68 0 0.0 0.0 0.00 0.00 0.00 54 1014.4
20260904055602 68 0 0.0 1.0 0.00 0.00 0.00 52 1014.3
20260904055104 68 0 0.0 3.0 0.00 0.00 0.00 52 1014.3
20260904054602 68 0 0.0 3.0 0.00 0.00 0.00 53 1014.3
20260904054103 68 0 0.0 0.0 0.00 0.00 0.00 53 1014.4
20260904053604 68 0 0.0 0.0 0.00 0.00 0.00 52 1014.3
20260904053103 69 0 0.0 5.0 0.00 0.00 0.00 53 1014.2
20260904052603 69 0 2.0 6.0 0.00 0.00 0.00 52 1014.2
20260904052102 68 0 2.0 6.0 0.00 0.00 0.00 52 1014.1
20260904051602 68 0 2.0 6.0 0.00 0.00 0.00 52 1014.1
20260904051103 67 0 2.0 5.0 0.00 0.00 0.00 53 1014.3
20260904050603 67 0 2.0 5.0 0.00 0.00 0.00 53 1014.4
20260904050103 67 0 2.0 5.0 0.00 0.00 0.00 53 1014.4
20260904045600 67 0 1.0 5.0 0.00 0.00 0.00 53 1014.5
20260904045059 68 0 0.0 3.0 0.00 0.00 0.00 55 1014.6
20260904044559 68 0 0.0 3.0 0.00 0.00 0.00 52 1014.6
20260904044058 68 0 1.0 3.0 0.00 0.00 0.00 51 1014.6
20260904043558 68 0 1.0 4.0 0.00 0.00 0.00 51 1014.5
20260904043058 68 0 1.0 4.0 0.00 0.00 0.00 51 1014.5
20260904042558 68 0 1.0 4.0 0.00 0.00 0.00 51 1014.5
20260904042059 68 0 1.0 3.0 0.00 0.00 0.00 52 1014.6
20260904041557 68 0 0.0 3.0 0.00 0.00 0.00 54 1014.7
20260904041057 69 0 0.0 3.0 0.00 0.00 0.00 52 1014.9
20260904040557 69 0 1.0 3.0 0.00 0.00 0.00 56 1014.7
20260904040057 69 0 0.0 2.0 0.00 0.00 0.00 59 1014.7
20260904035556 70 0 0.0 2.0 0.00 0.00 0.00 55 1014.7
20260904035056 70 0 0.0 0.0 0.00 0.00 0.00 51 1014.6
20260904034829 71 0 0.0 0.0 0.00 0.00 0.00 52 1014.7
20260904034056 71 0 0.0 3.0 0.00 0.00 0.00 54 1014.6
20260904033828 71 0 1.0 3.0 0.00 0.00 0.00 52 1014.6
20260904033057 71 0 0.0 3.0 0.00 0.00 0.00 46 1014.5
20260904032547 72 0 0.0 2.0 0.00 0.00 0.00 46 1014.5
20260904032047 72 0 1.0 3.0 0.00 0.00 0.00 46 1014.4
20260904031547 72 0 1.0 3.0 0.00 0.00 0.00 47 1014.4
20260904031046 72 0 0.0 3.0 0.00 0.00 0.00 46 1014.3
20260904030544 72 0 1.0 3.0 0.00 0.00 0.00 46 1014.3
20260904030045 73 0 1.0 3.0 0.00 0.00 0.00 47 1014.3
20260904025815 73 0 1.0 3.0 0.00 0.00 0.00 48 1014.2
20260904025043 74 0 0.0 0.0 0.00 0.00 0.00 57 1014.2
20260904024540 74 0 0.0 0.0 0.00 0.00 0.00 42 1014.1
20260904024038 75 0 0.0 0.0 0.00 0.00 0.00 42 1014.1
20260904023540 75 0 0.0 0.0 0.00 0.00 0.00 44 1014.1
20260904023039 75 0 0.0 2.0 0.00 0.00 0.00 45 1013.9